Location: Unspecified
(43.1763°N, 79.4719°W)
Time: 22:47:01
(UTC-04:00)

ISS - Visible Passes

Search period start: 25 September 2018 00:00
Search period end: 05 October 2018 00:00
Orbit: 403 x 408 km, 51.6° (Epoch: 26 September)

Date Brightness Start Highest point End Pass type
(mag) Time Alt. Az. Time Alt. Az. Time Alt. Az.
25 Sep -3.8 19:36:43 10° SW 19:39:59 67° SE 19:43:16 10° ENE visible
25 Sep -2.0 21:13:51 10° WNW 21:16:44 27° NNW 21:16:51 26° NNW visible
26 Sep -2.5 20:21:35 10° W 20:24:41 36° NNW 20:27:07 15° NE visible
26 Sep -0.3 21:59:25 10° NW 21:59:48 12° NW 21:59:48 12° NW visible
27 Sep -3.2 19:29:26 10° WSW 19:32:41 56° NNW 19:35:57 10° NE visible
27 Sep -1.6 21:07:08 10° WNW 21:09:42 20° N 21:09:58 20° N visible
28 Sep -1.8 20:14:47 10° WNW 20:17:34 24° NNW 20:20:04 12° NE visible
28 Sep -0.4 21:52:25 10° NW 21:52:44 12° NW 21:52:44 12° NW visible
29 Sep -1.6 21:00:16 10° NW 21:02:41 18° N 21:02:47 18° N visible
30 Sep -1.6 20:07:59 10° NW 20:10:28 19° N 20:12:48 11° NE visible
30 Sep -0.5 21:45:05 10° NW 21:45:28 12° NW 21:45:28 12° NW visible
01 Oct -1.7 20:53:07 10° NW 20:55:27 19° N 20:55:27 19° N visible
02 Oct -1.6 20:00:58 10° NW 20:03:23 18° N 20:05:26 12° NE visible
02 Oct -0.6 21:37:34 10° NW 21:38:06 13° NW 21:38:06 13° NW visible
03 Oct -2.0 20:45:40 10° NW 20:48:04 24° N 20:48:04 24° N visible
04 Oct -1.9 19:53:40 10° NW 19:56:15 20° N 19:58:03 14° NE visible
04 Oct -0.8 21:29:58 10° NW 21:30:43 16° NW 21:30:43 16° NW visible
